Flag for U.S.A. Weather past 2 weeks in Olympia, Washington, U.S.A.

Now
61 °F

More clouds than sun.


Feels Like: 61 °F
Forecast: 56 / 64 °F
Wind: 7 mph from Southwest

Location: Olympia Airport

Current Time: Jul 23, 2014 at 3:00:13 PM

Latest Report: Jul 23, 2014 at 1:54 PM


Visibility: 10 mi

Pressure: 30.05 "Hg

Humidity: 81%

Dew point: 55 °F

Location of OlympiaLocation

Historic Weather in Olympia — Graph

°F

Olympia temperature yesterday

Maximum temperature yesterday: 74 °F (at 6:54 PM)
Minimum temperature yesterday: 53 °F (at 1:54 AM)
Average temperature yesterday: 61 °F

Past Weeks' High & Low Weather Summary

 TemperatureHumidityPressure
High92 °F (Jul 12, 5:54 PM)100% (Jul 15, 5:54 AM)30.15 "Hg (Jul 15, 5:54 AM)
Low46 °F (Jul 21, 4:58 AM)21% (Jul 11, 4:54 PM)29.87 "Hg (Jul 10, 6:54 PM)
Average66 °F69%30.02 "Hg
* Reported Jul 8 12:54 PM — Jul 23 12:54 PM, Olympia, Weather by CustomWeather, © 2014

Note: Actual official high and low records may vary slightly from our data, if they occured in-between our weather recording intervals... More about our weather records

Advertising

Olympia weather history for previous 24 hours

 ConditionsComfort  
Time TempWeatherWind HumidityBarometerVisibility
12:54 PM
Jul 23
62 °FMore clouds than sun.10 mph80%30.04 "Hg5 mi
11:54 AM61 °FFog.6 mph87%30.02 "Hg4 mi
10:54 AM61 °FLight rain. Fog.7 mph93%30.01 "Hg3 mi
9:54 AM61 °FMostly cloudy.5 mph93%29.99 "Hg9 mi
8:54 AM59 °FLow clouds.3 mph96%30.00 "Hg8 mi
7:54 AM58 °FLight rain. Fog.3 mph97%30.00 "Hg4 mi
6:54 AM58 °FLight rain. Fog.8 mph97%29.99 "Hg4 mi
5:54 AM60 °FOvercast.5 mph93%29.98 "Hg9 mi
4:04 AM60 °FLight rain. Overcast.5 mph93%29.97 "Hg8 mi
2:54 AM62 °FLight rain. Mostly cloudy.6 mph86%29.98 "Hg8 mi
1:54 AM63 °FPassing clouds.5 mph81%29.99 "Hg10 mi
9:54 PM
Jul 22
66 °FSunny.3 mph70%30.01 "Hg10 mi
8:54 PM67 °FSunny.No wind66%30.01 "Hg10 mi
7:54 PM71 °FSunny.8 mph57%30.00 "Hg10 mi
6:54 PM74 °FPassing clouds.No wind46%30.01 "Hg10 mi
5:54 PM72 °FPassing clouds.No wind52%30.01 "Hg10 mi
4:54 PM72 °FPassing clouds.No wind55%30.03 "Hg10 mi
Weather by CustomWeather, © 2014

See weather overviewHow to use our weather pages